Find Starlink 3826

NORAD ID: 52347 Int'l Des: 2022-045 Owner: SPXS Country: US Constellation: starlink operational
LEOCIRCULAR

現在のビュー

3D地球を読み込み中...

About Starlink 3826

Starlink 3826 (NORAD 52347) is a starlink constellation satellite (v1.5) launched Apr 29, 2022 by SPXS of US. It operates in LEO, CIRCULAR orbit with a mass of 297.00 kg.

次回通過

Passes for default location (London). Set your location on the main map for personalized predictions.

高度履歴

Loading altitude history...

軌道要素

1 52347U 22045S 26209.17866796 -.00002714 00000-0 -71195-4 0 9996
2 52347 53.1633 283.5294 0001070 246.2955 113.7935 15.33562451237059
Epoch: Jul 28, 2026 • Age: 14 hours

現在のステータス

高度 476.4 km
遠地点 / 近地点 N/A
速度 7.63 km/s
衛星直下点 -36.77°S, 78.55°W
打ち上げ日 Apr 29, 2022
運用期間 4.2 years
タイプ internet

技術仕様

分類 Payload
質量 297.00 kg
乾燥質量 275.00 kg
総質量 297.00 kg
長さ 0.20 m
直径 2.80 m
スパン 9.00 m
形状 Box + pan
製造者 SPXS
バスタイプ Starlink
フェーズステータス In Orbit
所有者/国 SPXS/US

Most Searched